RH
28 27 27 27 28 28 29 29 29 30 31 32 32 32 31 31 30 29 29 28 27 26 24 23 21 19 18 16 14 13 12 12 12 12 13 13 14 14 14 15 15 15 14 14 14 14 13 13 13 13 13 13 14 14 15 16 17 18 20 23 26 28 31 33 33 33 33 32 31 31 32 34 35 36 35 33 32 34 39 44 47 50 52 53 54 54
29 29 29 30 31 32 32 32 32 33 34 34 33 33 31 30 29 27 26 24 22 20 18 16 15 13 13 12 12 13 13 14 15 15 15 15 14 14 13 12 12 11 10 10 9 9 9 9 9 9 9 9 9 9 10 10 11 11 12 13 15 17 19 21 24 26 29 30 31 32 32 33 34 35 36 35 34 34 36 39 43 46 49 51 53 54
31 32 33 33 34 35 36 35 35 34 34 33 31 29 27 24 22 19 17 16 15 14 13 13 13 14 15 15 15 15 15 14 13 12 11 10 10 9 9 9 8 8 8 8 8 8 8 8 8 8 8 8 8 8 8 9 9 9 9 10 10 10 10 11 13 15 18 21 24 27 29 31 32 34 35 36 36 36 37 38 40 43 45 47 50 52
34 35 35 36 36 37 37 35 33 31 28 25 23 20 18 15 14 14 13 14 14 15 15 16 16 16 15 14 13 11 10 9 8 8 8 8 8 8 8 8 8 8 8 8 8 8 7 8 7 8 8 8 8 8 8 9 9 9 9 9 9 9 9 9 9 9 10 12 14 17 20 23 26 28 31 34 36 38 39 39 40 41 42 44 46 49
35 35 35 35 34 33 31 27 24 21 18 16 15 14 13 14 14 15 16 17 16 16 15 14 13 11 10 9 8 8 7 7 7 7 7 7 7 7 7 7 7 7 7 7 7 7 7 7 7 7 8 8 8 8 8 8 8 9 9 9 9 9 9 9 8 8 9 9 9 10 11 14 16 19 22 26 30 34 37 38 39 40 41 42 44 46
32 31 29 27 25 22 20 17 15 14 13 14 15 16 17 17 17 16 15 14 12 11 10 9 8 8 8 8 8 7 7 7 7 7 7 7 7 7 7 7 7 7 7 7 7 7 7 7 7 7 8 8 8 8 8 8 8 8 9 9 9 9 9 9 9 8 9 9 9 9 9 10 11 12 14 17 21 25 29 32 34 36 38 40 42 45
23 21 18 16 15 14 14 15 16 16 17 17 17 17 16 14 13 11 10 9 8 8 7 8 8 8 8 8 8 7 7 7 7 7 7 7 7 6 6 6 6 6 6 7 7 7 7 7 7 8 8 8 8 8 8 8 8 8 8 8 9 9 9 9 9 9 9 9 9 9 9 10 10 10 11 12 14 16 19 23 27 30 33 36 39 42
14 13 12 12 13 15 17 18 19 18 18 16 14 12 11 9 9 8 8 8 8 8 8 8 8 8 8 8 7 7 7 7 7 7 7 6 7 6 6 6 6 6 6 6 7 7 7 7 7 8 8 8 8 8 8 8 8 9 9 8 9 9 9 9 9 9 9 9 10 10 10 11 11 12 12 12 12 12 12 14 17 21 26 30 34 38
12 14 15 16 17 18 18 17 16 15 13 12 11 10 9 8 8 8 8 8 8 8 8 8 8 8 8 8 7 7 7 7 7 7 7 7 7 7 6 6 6 6 6 6 7 7 7 7 8 8 8 8 8 8 8 8 8 8 9 9 9 9 9 9 10 10 10 10 10 11 12 12 13 13 13 12 11 10 10 10 11 14 17 21 26 31
16 17 18 18 17 16 15 14 12 11 11 10 10 10 9 9 8 8 8 8 8 8 8 8 8 8 8 8 7 7 7 7 7 7 7 7 7 7 7 7 7 7 7 7 7 7 8 8 8 8 8 9 9 9 9 9 9 9 9 9 9 9 10 10 10 11 11 11 12 13 13 14 14 14 13 12 11 11 10 10 10 10 11 14 18 23
17 17 16 14 13 13 12 11 11 10 10 10 10 10 10 9 9 8 8 8 8 8 8 8 8 8 8 8 8 7 7 7 7 7 7 7 7 7 7 7 7 7 8 8 8 8 8 8 8 9 9 9 9 9 9 9 9 9 9 9 9 10 10 11 11 11 12 13 14 14 15 14 14 14 13 12 12 11 11 11 10 10 9 10 12 15
14 13 12 12 11 11 10 10 10 10 10 10 9 9 9 9 9 9 9 8 8 8 8 8 8 9 9 9 8 8 8 7 7 7 7 7 7 7 7 7 7 7 8 8 8 8 8 9 9 9 9 9 9 9 10 10 9 9 10 10 10 10 10 11 11 12 13 14 15 15 15 15 14 13 13 12 12 12 12 12 11 11 10 9 10 10
11 11 11 11 11 11 11 10 10 10 10 10 10 10 10 9 9 9 9 9 8 8 8 8 8 9 9 10 9 9 8 8 7 7 7 8 8 8 7 7 7 8 8 8 8 8 8 9 9 9 9 9 10 10 10 10 10 10 10 10 11 11 11 11 12 13 14 15 16 16 15 15 14 14 14 14 14 14 14 13 12 11 11 10 10 9
10 11 11 11 11 11 11 10 10 10 10 10 10 10 10 9 9 9 9 9 9 9 9 8 8 9 9 10 10 9 8 8 7 7 7 8 8 8 8 8 8 8 8 8 8 9 9 9 9 9 9 9 10 10 10 10 11 11 11 11 11 11 12 12 13 14 15 16 16 16 15 15 15 16 16 16 16 16 15 15 13 12 12 11 10 10
11 11 11 11 11 11 11 10 10 10 10 10 10 10 10 10 10 10 9 9 9 9 8 8 8 8 9 10 10 9 9 8 8 7 7 8 8 9 9 9 9 9 9 9 9 9 9 9 10 10 10 10 10 10 11 11 11 11 11 11 12 12 12 13 14 15 16 16 16 16 16 16 17 17 18 18 18 17 17 16 14 13 12 12 11 11
11 10 11 11 11 11 11 10 10 10 10 10 10 10 10 10 10 10 10 10 9 9 9 8 8 8 8 9 10 10 9 9 8 8 8 8 9 10 10 10 10 9 9 10 10 10 10 10 10 10 11 10 11 11 11 11 11 11 12 12 12 12 13 14 15 15 15 16 16 16 17 18 18 19 20 20 19 18 17 16 15 14 14 13 13 14
11 10 10 10 10 10 10 10 10 10 10 10 10 10 11 11 10 10 10 10 10 9 9 9 9 9 9 9 10 11 10 10 9 9 9 9 10 11 11 11 11 11 10 10 11 11 11 11 11 11 11 11 11 11 11 12 12 12 12 12 12 13 14 14 15 15 16 16 16 17 18 19 20 20 20 20 20 18 17 17 16 16 16 16 17 17
10 10 10 10 10 10 11 11 11 11 10 10 11 11 11 11 11 10 10 10 10 10 10 10 10 11 11 11 11 12 12 12 12 11 11 11 11 12 12 13 12 12 12 11 11 11 11 11 11 11 12 12 12 12 12 12 12 12 12 12 13 13 14 15 15 15 16 17 17 18 19 20 21 21 21 20 20 19 18 18 19 19 20 20 20 21
11 11 11 11 11 11 11 11 11 11 11 11 11 11 11 11 11 11 11 11 11 10 10 11 11 12 12 12 13 13 14 14 14 14 14 13 13 13 14 14 14 13 12 12 12 12 12 11 12 12 12 12 12 12 12 12 12 12 12 13 13 14 14 14 15 16 16 17 18 19 20 20 21 21 21 20 20 20 20 21 22 23 23 24 24 24
11 11 12 12 12 12 12 12 11 11 11 11 11 11 11 11 11 11 11 11 11 11 11 11 11 12 13 13 13 14 15 15 16 17 17 16 15 14 15 16 15 15 13 13 12 12 12 12 12 12 12 12 12 12 12 12 13 13 13 13 14 14 14 15 15 16 16 17 19 19 20 20 21 20 20 20 20 21 22 23 25 25 26 26 27 27
12 12 12 12 12 12 12 12 12 12 12 12 11 11 11 11 11 11 11 11 11 11 11 12 12 13 13 13 13 14 16 17 18 19 19 17 16 16 16 17 17 15 14 13 13 13 13 13 13 13 13 13 13 13 13 13 13 13 14 14 14 14 14 15 15 16 17 18 19 20 20 21 20 20 20 21 21 22 24 25 26 27 28 28 28 27
13 13 13 13 13 13 12 12 12 12 12 12 11 11 11 11 11 11 11 12 12 12 12 12 13 13 13 13 14 14 16 18 19 20 19 19 18 17 17 17 17 16 15 14 14 14 13 14 14 14 14 14 14 14 13 13 14 14 14 14 14 14 14 15 16 16 17 18 19 20 20 20 21 21 21 21 22 23 25 26 27 28 28 28 28 28
13 13 13 13 13 13 13 12 12 12 12 12 12 11 11 12 12 12 12 13 13 13 13 13 13 13 13 13 13 14 16 18 19 20 21 21 20 18 17 17 18 17 16 15 15 14 14 14 15 15 15 15 15 14 14 14 14 14 14 14 14 15 15 15 16 17 17 18 19 20 20 21 21 21 21 21 22 23 24 26 27 27 28 28 28 27
13 13 13 13 13 13 13 12 12 12 12 12 12 12 12 12 12 13 13 14 14 14 13 13 13 13 13 13 13 14 15 17 18 20 22 22 21 20 18 18 18 18 17 17 16 16 16 15 16 16 16 16 16 15 15 15 15 15 14 14 15 15 15 16 16 17 18 19 19 20 21 21 21 21 22 22 22 22 23 24 25 25 26 26 26 26
13 13 13 13 13 13 13 13 13 13 13 13 13 13 13 13 13 14 14 15 15 15 15 14 13 13 13 13 13 13 14 16 18 20 22 23 22 20 19 19 19 19 19 18 17 17 17 17 17 17 17 17 17 16 16 16 15 15 15 15 15 15 16 17 17 18 18 19 20 20 21 21 22 22 22 22 21 21 21 22 22 22 22 23 22 22
13 13 13 13 13 13 13 13 13 13 14 14 14 14 14 14 14 15 15 16 16 16 16 16 15 14 14 14 14 13 14 16 18 20 22 23 22 21 19 19 20 21 21 20 19 19 19 19 18 18 18 18 17 17 17 17 16 16 16 16 16 16 17 17 18 19 19 20 20 21 21 22 22 22 22 22 21 21 21 20 20 20 20 19 19 19
14 13 13 13 13 13 13 13 14 14 14 15 15 15 15 15 16 17 17 17 17 17 18 18 18 17 16 15 15 14 14 16 18 20 22 23 23 22 21 21 22 22 23 22 21 21 22 21 20 19 19 19 18 18 18 18 17 17 17 17 17 17 18 18 19 20 20 21 21 22 22 22 22 22 22 22 21 21 21 20 20 19 19 18 17 17
14 14 13 13 13 13 14 14 14 15 15 15 16 17 17 17 18 18 18 18 19 19 20 21 21 20 19 18 16 15 15 17 18 20 22 22 23 24 23 23 23 24 25 24 23 23 23 23 22 22 20 20 19 19 19 18 18 18 18 18 19 19 19 20 20 21 21 21 22 22 23 23 23 23 23 22 22 21 21 20 20 20 19 18 17 16
14 14 14 14 14 14 14 14 14 15 15 16 17 18 18 19 19 20 20 19 20 21 21 22 22 22 21 20 18 17 16 17 19 20 22 23 24 25 24 24 25 26 26 26 25 24 24 24 24 23 22 21 21 20 20 20 20 20 20 20 20 20 21 21 21 21 22 22 23 23 23 24 24 24 23 23 22 22 21 21 21 21 20 19 17 16
14 14 14 14 14 14 14 15 15 15 16 16 17 18 19 19 20 20 20 20 21 22 22 22 22 22 22 21 21 19 17 17 19 20 22 24 25 25 25 26 26 27 27 27 27 26 26 25 24 24 24 24 23 22 22 22 22 22 22 22 22 22 22 22 22 22 22 23 23 23 24 24 24 24 24 24 24 23 23 23 23 23 21 20 18 17
14 14 14 14 14 15 15 15 16 16 17 17 18 18 19 20 20 21 21 21 22 22 23 22 22 22 23 23 24 23 20 18 19 21 23 25 26 26 26 27 27 28 28 29 28 28 27 26 25 24 25 25 25 25 25 25 25 24 24 24 23 23 23 23 23 23 23 23 23 24 24 25 25 25 25 25 25 25 25 25 25 25 24 22 20 18
15 15 15 15 15 15 15 16 16 16 17 17 18 19 19 20 21 21 21 21 21 22 22 22 22 22 23 24 25 25 22 20 20 22 24 26 27 27 27 27 28 28 29 29 29 29 28 28 26 25 26 27 27 28 28 28 27 27 27 26 25 25 24 24 24 24 24 24 24 25 25 25 26 26 26 26 26 26 27 27 27 27 26 24 22 20
15 15 15 15 15 15 16 16 17 17 17 18 19 19 19 20 20 21 21 21 21 21 21 21 22 22 23 24 24 24 21 20 21 23 25 27 28 28 27 28 28 29 29 29 30 30 30 29 29 28 28 28 29 30 30 30 30 29 29 28 28 27 26 26 26 25 25 25 25 26 26 26 27 27 27 27 28 28 28 29 29 29 28 27 25 23
16 16 16 16 16 16 16 17 17 17 18 18 19 19 20 20 20 21 21 21 21 21 21 21 22 23 24 24 24 23 21 21 22 24 26 28 28 28 29 29 29 29 29 30 30 30 30 30 30 30 29 30 30 31 32 32 32 31 31 31 30 29 29 28 28 28 27 27 27 27 27 27 28 28 28 29 29 29 30 30 30 30 30 30 29 27
16 16 16 16 16 16 17 17 17 18 18 18 19 19 20 20 20 20 20 20 21 21 21 21 22 23 24 25 25 24 22 22 23 24 26 28 29 29 29 30 30 30 30 30 30 30 30 30 30 31 31 31 31 32 33 33 34 33 32 32 32 32 32 31 31 31 30 29 29 29 29 29 29 30 30 30 31 31 31 31 31 31 31 31 31 30
17 17 17 17 17 17 17 17 18 18 19 19 19 20 20 20 20 20 20 21 21 21 21 21 22 23 24 25 25 25 23 23 23 25 26 28 30 30 30 30 30 30 30 31 30 31 31 31 31 31 32 32 33 33 33 34 34 34 34 34 34 34 34 34 34 34 34 33 32 31 31 31 32 32 32 32 32 32 32 31 31 31 31 31 32 32
17 17 17 17 17 18 18 18 18 19 19 20 20 20 21 21 21 21 21 21 21 21 21 21 22 22 23 24 25 24 24 24 25 25 27 28 30 31 31 31 31 31 31 31 31 31 31 31 31 32 33 33 34 34 35 34 34 34 34 35 36 37 37 37 37 37 37 36 35 35 34 34 34 34 33 33 33 33 32 31 31 31 31 31 31 32
18 18 18 18 18 18 19 19 19 20 20 20 21 21 21 22 22 21 22 21 21 21 21 22 22 22 23 24 24 25 25 25 26 26 27 28 30 31 32 31 32 32 32 32 32 32 32 32 32 33 33 34 35 35 36 36 36 35 35 36 37 38 39 39 39 39 40 39 38 38 37 36 36 35 35 35 34 34 33 32 31 31 30 30 30 31
19 19 19 19 19 19 19 20 20 21 21 21 22 22 22 22 22 22 22 22 22 22 22 22 22 23 23 24 24 25 25 26 26 27 27 28 30 31 32 32 32 32 32 32 33 33 33 33 34 34 35 35 35 36 37 37 37 37 37 37 37 38 39 40 41 41 42 41 41 40 39 38 38 37 37 37 36 36 35 33 32 31 31 31 30 29
19 20 20 20 20 20 21 21 21 22 22 22 23 23 23 23 23 23 23 23 23 23 23 23 23 23 23 24 24 25 26 26 26 27 27 28 29 30 32 33 33 33 33 33 33 34 34 35 35 36 37 37 37 37 37 38 38 38 38 38 38 38 39 41 42 42 43 43 43 42 42 41 40 39 39 38 38 37 37 35 34 34 33 33 33 31
21 21 21 21 21 22 22 22 23 23 23 23 23 24 24 24 24 24 24 24 24 24 24 24 23 23 23 24 24 25 25 26 26 27 27 28 29 30 31 32 33 33 33 33 34 34 35 36 37 37 38 38 38 38 39 39 39 40 40 40 39 39 39 41 42 42 42 43 43 44 44 43 42 41 41 40 40 39 38 38 37 36 36 36 36 35
22 22 22 22 22 23 23 23 23 24 24 24 24 24 24 25 25 25 25 24 24 24 24 24 24 23 23 23 24 25 25 26 26 27 27 27 28 29 30 31 32 33 33 33 34 35 36 37 38 39 39 40 40 40 40 40 40 41 41 41 40 40 39 40 40 41 42 42 43 43 44 44 44 43 43 42 41 40 39 39 38 38 38 38 37 37
23 23 23 23 24 24 24 24 25 25 25 25 25 25 26 26 26 26 26 26 25 25 25 25 25 24 24 23 23 24 25 26 26 27 27 27 28 28 29 30 31 32 33 33 34 35 36 37 39 40 41 41 41 42 42 41 41 41 42 42 41 40 40 39 39 40 40 41 42 42 43 44 44 45 45 44 43 42 40 40 39 39 39 39 38 38
24 24 25 25 25 25 25 25 26 26 26 26 26 26 26 27 27 27 27 27 27 26 26 26 26 25 25 25 24 24 24 25 26 26 27 27 27 28 28 29 30 31 33 33 34 35 36 38 39 41 41 42 43 43 43 43 42 42 42 42 41 41 41 40 40 40 40 41 41 42 42 43 44 44 45 45 45 44 43 42 40 39 38 38 38 39
26 26 26 26 26 26 26 26 27 27 27 27 27 27 27 28 28 28 28 28 28 28 27 27 27 27 27 26 25 25 24 25 25 26 26 27 27 27 28 28 29 30 32 33 35 36 37 38 39 40 42 43 44 44 45 44 43 43 42 41 41 41 41 41 42 42 43 43 43 43 43 43 43 43 44 44 45 45 45 44 43 41 40 39 38 38
27 27 27 27 27 27 27 27 28 28 28 27 28 28 28 28 28 29 29 29 29 29 29 28 29 28 28 27 26 26 26 25 25 25 26 26 26 27 27 28 29 30 31 33 35 36 38 40 41 42 43 44 45 45 46 45 44 43 42 41 41 41 42 43 44 45 46 46 46 45 45 45 44 43 43 43 44 45 45 45 45 43 42 40 39 39
28 28 28 28 28 28 28 29 29 29 28 28 28 29 29 29 29 30 30 30 30 30 30 30 30 30 29 29 28 28 28 27 27 26 26 26 26 26 27 27 28 30 31 33 35 37 39 40 42 43 45 45 46 46 46 45 44 43 42 41 41 41 42 44 46 47 48 49 48 48 48 47 46 45 44 43 43 44 45 46 45 45 43 42 40 39
29 29 29 29 29 29 29 29 29 29 29 29 29 29 30 30 30 30 31 31 31 31 30 31 31 30 30 30 29 29 29 29 29 28 27 27 27 27 27 28 29 30 32 33 35 37 39 41 43 45 47 47 47 47 46 45 44 43 42 41 41 41 43 45 46 47 49 49 49 49 49 49 48 47 46 44 44 43 44 45 45 45 45 43 41 40
31 30 30 30 30 30 30 30 30 30 30 30 30 30 31 31 31 31 31 31 31 31 31 32 32 32 31 30 30 30 30 30 29 29 28 28 28 28 28 28 29 31 32 34 35 37 39 41 43 46 48 49 49 48 47 45 44 43 42 41 41 42 43 44 46 47 48 48 48 48 48 48 48 48 47 46 45 44 43 44 44 45 45 44 42 41
31 32 32 32 32 31 31 31 31 31 31 31 31 31 31 31 32 32 32 32 32 32 32 33 33 33 33 32 31 30 30 30 30 29 28 29 29 29 29 29 30 31 33 34 35 36 37 39 42 45 48 50 50 49 48 47 45 44 42 42 42 42 43 43 44 45 46 47 46 46 46 46 46 46 46 46 46 45 44 44 44 44 44 44 43 42
33 33 33 33 33 32 32 32 32 32 32 31 32 32 32 32 32 33 33 33 33 33 33 33 34 34 33 33 32 31 31 30 30 29 28 28 29 29 30 31 32 33 34 34 35 36 37 38 40 43 46 49 50 51 51 49 48 46 44 43 42 42 42 43 43 44 44 45 45 45 45 45 45 45 45 46 46 46 45 44 44 44 44 44 43 43